• In Russia
  • List of Countries
  • For 7 days
  • Water Temperature
  • Satellite Maps
  • Weather Map
  • Weather Widgets
  • user-avatar
    Login

    Hourly Weather Lubstynek

    Today, 22 October, Monday

    Time Temperature Precipitation Wind Pressure Humidity
    00:00 +4°C° 0 mm 2 mps 746 mmHg 88%
    01:00 +4°C° 0 mm 2 mps 746 mmHg 91%
    02:00 +3°C° 0 mm 3 mps 746 mmHg 91%
    03:00 +3°C° 0 mm 3 mps 745 mmHg 92%
    04:00 +3°C° 0 mm 3 mps 745 mmHg 92%
    05:00 +3°C° 0 mm 3 mps 745 mmHg 92%
    06:00 +3°C° 0 mm 3 mps 745 mmHg 92%
    07:00 +3°C° 0 mm 4 mps 745 mmHg 89%
    08:00 +4°C° 0 mm 4 mps 744 mmHg 82%
    09:00 +6°C° 0 mm 4 mps 744 mmHg 76%
    10:00 +7°C° 0 mm 5 mps 743 mmHg 69%
    11:00 +8°C° 0 mm 5 mps 743 mmHg 67%
    12:00 +9°C° 0 mm 5 mps 743 mmHg 66%
    13:00 +10°C° 0 mm 5 mps 743 mmHg 64%
    14:00 +9°C° 0.5 mm 5 mps 742 mmHg 71%
    15:00 +8°C° 0.5 mm 5 mps 742 mmHg 78%
    16:00 +8°C° 0.5 mm 4 mps 742 mmHg 84%
    17:00 +7°C° 0.2 mm 4 mps 742 mmHg 84%
    18:00 +7°C° 0.2 mm 4 mps 742 mmHg 83%
    19:00 +6°C° 0.2 mm 4 mps 742 mmHg 83%
    20:00 +5°C° 0 mm 4 mps 742 mmHg 83%
    21:00 +5°C° 0 mm 4 mps 742 mmHg 84%
    22:00 +4°C° 0 mm 4 mps 742 mmHg 85%
    23:00 +4°C° 0 mm 4 mps 742 mmHg 86%

    Tomorrow, 23 October, Tuesday

    Time Temperature Precipitation Wind Pressure Humidity
    00:00 +4°C° 0 mm 4 mps 742 mmHg 86%
    01:00 +3°C° 0 mm 4 mps 742 mmHg 87%
    02:00 +3°C° 0 mm 4 mps 741 mmHg 87%
    03:00 +3°C° 0 mm 4 mps 740 mmHg 88%
    04:00 +2°C° 0 mm 5 mps 739 mmHg 88%
    05:00 +2°C° 0.3 mm 6 mps 738 mmHg 86%
    06:00 +3°C° 0.3 mm 6 mps 737 mmHg 84%
    07:00 +3°C° 0.3 mm 7 mps 736 mmHg 83%
    08:00 +2°C° 1 mm 8 mps 735 mmHg 82%
    09:00 +2°C° 1 mm 9 mps 734 mmHg 82%
    10:00 +2°C° 1 mm 9 mps 732 mmHg 81%
    11:00 +3°C° 0.8 mm 10 mps 731 mmHg 81%
    12:00 +3°C° 0.8 mm 10 mps 730 mmHg 81%
    13:00 +5°C° 0.8 mm 10 mps 728 mmHg 80%
    14:00 +5°C° 1.5 mm 10 mps 727 mmHg 82%
    15:00 +6°C° 1.5 mm 9 mps 726 mmHg 84%
    16:00 +7°C° 1.5 mm 8 mps 725 mmHg 86%
    17:00 +6°C° 0.3 mm 8 mps 725 mmHg 83%
    18:00 +6°C° 0.3 mm 7 mps 724 mmHg 81%
    19:00 +6°C° 0.3 mm 7 mps 724 mmHg 79%
    20:00 +7°C° 0 mm 6 mps 723 mmHg 79%
    21:00 +5°C° 0 mm 6 mps 722 mmHg 79%
    22:00 +5°C° 0 mm 6 mps 722 mmHg 79%
    23:00 +5°C° 0.1 mm 7 mps 721 mmHg 77%

    Day after tomorrow, 24 October, Wednesday

    Time Temperature Precipitation Wind Pressure Humidity
    00:00 +4°C° 0.1 mm 7 mps 721 mmHg 75%
    01:00 +4°C° 0.1 mm 8 mps 720 mmHg 73%
    02:00 +3°C° 0.5 mm 9 mps 720 mmHg 70%
    03:00 +3°C° 0.5 mm 10 mps 721 mmHg 67%
    04:00 +2°C° 0.5 mm 11 mps 721 mmHg 64%
    05:00 +2°C° 0.1 mm 10 mps 722 mmHg 62%
    06:00 +1°C° 0.1 mm 9 mps 723 mmHg 60%
    07:00 +1°C° 0.1 mm 8 mps 724 mmHg 58%
    08:00 +1°C° 0.2 mm 9 mps 724 mmHg 58%
    09:00 +2°C° 0.2 mm 10 mps 725 mmHg 58%
    10:00 +2°C° 0.2 mm 11 mps 725 mmHg 58%
    11:00 +3°C° 0.3 mm 12 mps 725 mmHg 59%
    12:00 +3°C° 0.3 mm 12 mps 726 mmHg 60%
    13:00 +3°C° 0.3 mm 13 mps 726 mmHg 61%
    14:00 +3°C° 0.1 mm 12 mps 727 mmHg 62%
    15:00 +3°C° 0.1 mm 12 mps 728 mmHg 63%
    16:00 +3°C° 0.1 mm 11 mps 729 mmHg 63%
    17:00 +3°C° 0.1 mm 10 mps 729 mmHg 64%
    18:00 +2°C° 0.1 mm 9 mps 730 mmHg 65%
    19:00 +2°C° 0.1 mm 9 mps 731 mmHg 66%
    20:00 +2°C° 0 mm 8 mps 731 mmHg 67%
    21:00 +3°C° 0 mm 7 mps 732 mmHg 68%
    22:00 +2°C° 0 mm 6 mps 732 mmHg 69%
    23:00 +2°C° 0 mm 5 mps 732 mmHg 71%

    25 October, Thursday

    Time Temperature Precipitation Wind Pressure Humidity
    00:00 +1°C° 0 mm 5 mps 732 mmHg 72%
    01:00 +1°C° 0 mm 5 mps 732 mmHg 74%
    02:00 +1°C° 0 mm 4 mps 731 mmHg 75%
    03:00 +1°C° 0 mm 4 mps 730 mmHg 76%
    04:00 +1°C° 0 mm 4 mps 730 mmHg 77%
    05:00 +2°C° 1 mm 5 mps 729 mmHg 81%
    06:00 +2°C° 1 mm 5 mps 727 mmHg 86%
    07:00 +3°C° 1 mm 6 mps 726 mmHg 91%
    08:00 +4°C° 0.4 mm 7 mps 726 mmHg 83%
    09:00 +6°C° 0.4 mm 8 mps 726 mmHg 76%
    10:00 +8°C° 0.4 mm 10 mps 725 mmHg 69%
    11:00 +8°C° 0.1 mm 10 mps 726 mmHg 67%
    12:00 +8°C° 0.1 mm 10 mps 726 mmHg 65%
    13:00 +8°C° 0.1 mm 9 mps 726 mmHg 63%
    14:00 +7°C° 0 mm 8 mps 727 mmHg 65%
    15:00 +8°C° 0 mm 7 mps 727 mmHg 68%
    16:00 +7°C° 0 mm 5 mps 728 mmHg 70%
    17:00 +7°C° 0.1 mm 5 mps 728 mmHg 74%
    18:00 +6°C° 0.1 mm 5 mps 729 mmHg 77%
    19:00 +6°C° 0.1 mm 4 mps 729 mmHg 81%
    20:00 +5°C° 0 mm 4 mps 729 mmHg 82%
    21:00 +5°C° 0 mm 4 mps 730 mmHg 82%
    22:00 +5°C° 0 mm 4 mps 730 mmHg 83%
    23:00 +4°C° 0 mm 4 mps 731 mmHg 84%

    26 October, Friday

    Time Temperature Precipitation Wind Pressure Humidity
    00:00 +4°C° 0 mm 4 mps 731 mmHg 84%
    01:00 +4°C° 0 mm 4 mps 731 mmHg 85%
    02:00 +3°C° 0 mm 4 mps 731 mmHg 86%
    03:00 +3°C° 0 mm 3 mps 732 mmHg 87%
    04:00 +2°C° 0 mm 3 mps 732 mmHg 88%
    05:00 +2°C° 0 mm 3 mps 732 mmHg 88%
    06:00 +3°C° 0 mm 2 mps 732 mmHg 88%
    07:00 +3°C° 0 mm 2 mps 733 mmHg 89%
    08:00 +4°C° 0 mm 2 mps 733 mmHg 83%
    09:00 +6°C° 0 mm 2 mps 733 mmHg 78%
    10:00 +7°C° 0 mm 2 mps 733 mmHg 72%
    11:00 +8°C° 0 mm 3 mps 733 mmHg 71%
    12:00 +8°C° 0 mm 3 mps 733 mmHg 70%
    13:00 +8°C° 0 mm 4 mps 732 mmHg 69%
    14:00 +8°C° 0 mm 4 mps 732 mmHg 71%
    15:00 +8°C° 0 mm 3 mps 732 mmHg 73%
    16:00 +8°C° 0 mm 3 mps 731 mmHg 75%
    17:00 +7°C° 0 mm 4 mps 731 mmHg 75%
    18:00 +6°C° 0 mm 4 mps 731 mmHg 76%
    19:00 +6°C° 0 mm 5 mps 731 mmHg 77%
    20:00 +6°C° 0 mm 5 mps 730 mmHg 77%
    21:00 +6°C° 0 mm 5 mps 730 mmHg 78%
    22:00 +6°C° 0 mm 5 mps 730 mmHg 79%
    23:00 +6°C° 0 mm 5 mps 729 mmHg 79%

    27 October, Saturday

    Time Temperature Precipitation Wind Pressure Humidity
    00:00 +6°C° 0 mm 5 mps 729 mmHg 80%
    01:00 +6°C° 0 mm 5 mps 728 mmHg 80%
    02:00 +6°C° 0.1 mm 5 mps 728 mmHg 83%
    03:00 +6°C° 0.1 mm 5 mps 728 mmHg 85%
    04:00 +6°C° 0.1 mm 4 mps 727 mmHg 88%
    05:00 +6°C° 0 mm 4 mps 727 mmHg 90%
    06:00 +6°C° 0 mm 4 mps 727 mmHg 92%
    07:00 +6°C° 0 mm 4 mps 727 mmHg 95%
    08:00 +6°C° 0 mm 4 mps 727 mmHg 90%
    09:00 +7°C° 0 mm 4 mps 728 mmHg 85%
    10:00 +8°C° 0 mm 5 mps 728 mmHg 81%
    11:00 +8°C° 0 mm 4 mps 728 mmHg 77%
    12:00 +8°C° 0 mm 4 mps 728 mmHg 74%
    13:00 +10°C° 0 mm 3 mps 728 mmHg 70%
    14:00 +9°C° 0 mm 3 mps 728 mmHg 72%
    15:00 +9°C° 0 mm 2 mps 728 mmHg 73%
    16:00 +9°C° 0 mm 1 mps 728 mmHg 75%
    17:00 +9°C° 0.1 mm 1 mps 728 mmHg 76%
    18:00 +8°C° 0.1 mm 1 mps 728 mmHg 78%
    19:00 +8°C° 0.1 mm 1 mps 728 mmHg 80%
    20:00 +8°C° 0.4 mm 1 mps 728 mmHg 81%
    21:00 +8°C° 0.4 mm 1 mps 728 mmHg 82%
    22:00 +8°C° 0.4 mm 1 mps 727 mmHg 84%
    23:00 +6°C° 0.6 mm 2 mps 727 mmHg 84%

    28 October, Sunday

    Time Temperature Precipitation Wind Pressure Humidity
    00:00 +5°C° 0.6 mm 3 mps 727 mmHg 85%
    01:00 +5°C° 0.6 mm 3 mps 726 mmHg 86%
    02:00 +5°C° 0.3 mm 4 mps 726 mmHg 86%
    03:00 +5°C° 0.3 mm 4 mps 726 mmHg 86%
    04:00 +5°C° 0.3 mm 5 mps 725 mmHg 87%
    05:00 +5°C° 0.5 mm 5 mps 725 mmHg 87%
    06:00 +4°C° 0.5 mm 6 mps 725 mmHg 87%
    07:00 +4°C° 0.5 mm 6 mps 725 mmHg 87%
    08:00 +4°C° 0.3 mm 6 mps 725 mmHg 86%
    09:00 +5°C° 0.3 mm 5 mps 725 mmHg 84%
    10:00 +5°C° 0.3 mm 5 mps 725 mmHg 83%
    11:00 +5°C° 0.4 mm 5 mps 725 mmHg 83%
    12:00 +5°C° 0.4 mm 5 mps 725 mmHg 84%
    13:00 +5°C° 0.4 mm 4 mps 725 mmHg 84%
    14:00 +5°C° 0.5 mm 4 mps 726 mmHg 85%
    15:00 +5°C° 0.5 mm 3 mps 726 mmHg 87%
    16:00 +5°C° 0.5 mm 2 mps 726 mmHg 89%
    17:00 +4°C° 0.3 mm 3 mps 727 mmHg 89%
    18:00 +4°C° 0.3 mm 4 mps 727 mmHg 90%
    19:00 +4°C° 0.3 mm 4 mps 728 mmHg 90%
    20:00 +4°C° 0 mm 4 mps 729 mmHg 90%
    21:00 +4°C° 0 mm 4 mps 730 mmHg 90%
    22:00 +4°C° 0 mm 4 mps 731 mmHg 90%
    23:00 +3°C° 0.1 mm 5 mps 731 mmHg 90%
    Show more